Location: Newark
(7.0858°N, 171.3717°E)
Time: 20:16:56
(UTC+00:00)

Tiros 1 - Pass Details

Date: 27 November 2020
Orbit: 630 x 663 km, 48.4° (Epoch: 18 January)

Event Time Altitude Azimuth Distance (km) Brightness Sun altitude
Rises 11:32:37 0° 350° (N) 2,929 - -71.4°
Reaches altitude 10° 11:36:08 10° 17° (NNE) 2,014 - -72.0°
Maximum altitude 11:38:22 13° 46° (NE) 1,799 - -72.3°
Drops below altitude 10° 11:40:35 10° 75° (ENE) 2,008 - -72.6°
Sets 11:44:04 0° 103° (ESE) 2,911 - -73.1°
